GLOBALSTAR M001 1 25162U 98008A 25354.41362060 -.00000086 00000+0 83340-4 0 9998 2 25162 52.0008 151.1899 0000341 322.1109 59.3800 12.38224061266786 GLOBALSTAR M004 1 25163U 98008B 25354.09156807 -.00000080 00000+0 13501-3 0 9998 2 25163 51.9979 206.9970 0003243 3.5455 163.4679 12.63411087285189 GLOBALSTAR M002 1 25164U 98008C 25354.13493769 -.00000106 00000+0 -58742-3 0 9991 2 25164 51.9990 133.9680 0002555 117.8980 242.2099 11.61514715205674 GLOBALSTAR M003 1 25165U 98008D 25354.51530019 -.00000201 00000+0 -11930-2 0 9997 2 25165 51.9925 12.4473 0007834 309.3013 208.7317 12.12041115255811 GLOBALSTAR M014 1 25306U 98023A 25354.47707617 -.00000089 00000+0 -20942-3 0 9994 2 25306 51.9858 52.4168 0000504 358.4806 14.8173 11.65483531212896 GLOBALSTAR M006 1 25307U 98023B 25354.05661544 -.00000109 00000+0 -67281-3 0 9997 2 25307 51.9930 112.9000 0004027 93.7013 77.0245 11.58178593238360 GLOBALSTAR M015 1 25308U 98023C 25354.35485022 -.00000066 00000+0 16778-3 0 9992 2 25308 51.9796 219.1647 0013631 49.7297 121.4360 11.48862745215471 GLOBALSTAR M008 1 25309U 98023D 25354.39033096 -.00000060 00000+0 28726-3 0 9997 2 25309 51.9993 18.1990 0002711 202.0514 261.5905 12.36077201260870 GLOBALSTAR M023 1 25621U 99004A 25354.02757009 -.00000055 00000+0 27131-3 0 9994 2 25621 52.0081 207.5494 0009896 172.6402 337.8532 12.62510825239208 GLOBALSTAR M040 1 25622U 99004B 25354.31727263 -.00000062 00000+0 23146-3 0 9996 2 25622 51.9894 211.0958 0002011 78.8935 93.7520 12.62025430238751 GLOBALSTAR M036 1 25623U 99004C 25354.06048808 -.00000126 00000+0 -62414-3 0 9993 2 25623 51.9964 110.3893 0010840 50.4818 120.5297 11.86617741201043 GLOBALSTAR M038 1 25624U 99004D 25354.47796264 -.00000060 00000+0 29189-3 0 9993 2 25624 51.9971 255.0718 0002722 74.3396 96.0512 12.32537589225340 GLOBALSTAR M022 1 25649U 99012A 25354.42321449 -.00000115 00000+0 -33723-3 0 9994 2 25649 52.0019 144.6224 0003136 159.5735 216.7274 12.02508327198788 GLOBALSTAR M041 1 25650U 99012B 25354.48249213 -.00000091 00000+0 -77762-4 0 9995 2 25650 52.0040 31.5923 0000891 337.4464 22.6334 11.96681216200589 GLOBALSTAR M046 1 25651U 99012C 25354.46986645 -.00000177 00000+0 -97416-3 0 9993 2 25651 52.0057 87.8298 0001499 248.4578 194.4231 12.09415342206208 GLOBALSTAR M037 1 25652U 99012D 25354.41328302 -.00000091 00000+0 68561-4 0 9993 2 25652 52.0026 336.9232 0001682 240.4204 284.0787 12.62458527234791 GLOBALSTAR M045 1 25676U 99019A 25354.17491840 -.00000103 00000+0 -81799-4 0 9990 2 25676 51.9947 135.1593 0000945 121.6602 49.4429 12.27070716216224 GLOBALSTAR M019 1 25677U 99019B 25354.21555700 .00000064 00000+0 15999-2 0 9993 2 25677 51.9883 278.5038 0001763 3.2313 145.1499 12.13878070207734 GLOBALSTAR M044 1 25678U 99019C 25354.13240749 -.00000017 00000+0 93339-3 0 9993 2 25678 51.9964 253.3568 0006957 40.0972 128.6870 11.90262142193468 GLOBALSTAR M042 1 25679U 99019D 25353.95895244 -.00000054 00000+0 36105-3 0 9998 2 25679 52.0007 246.5125 0003015 342.1239 31.4218 12.22094516207979 GLOBALSTAR M025 1 25770U 99031A 25354.50428269 -.00000072 00000+0 -12337-3 0 9997 2 25770 51.9828 87.6521 0002965 103.4610 340.8461 11.22558968502631 GLOBALSTAR M049 1 25771U 99031B 25354.13382458 -.00000129 00000+0 -22104-2 0 9991 2 25771 51.9852 132.6175 0002265 349.4066 10.6683 11.12123178138111 GLOBALSTAR M047 1 25772U 99031C 25354.30150242 -.00000084 00000+0 -40221-3 0 9996 2 25772 51.9823 111.4253 0016166 218.8617 141.1027 11.31931785492182 GLOBALSTAR M052 1 25773U 99031D 25354.44600191 .00000008 00000+0 24886-2 0 9997 2 25773 51.9848 237.9683 0003386 103.2044 67.2062 11.15062596499284 GLOBALSTAR M035 1 25851U 99037A 25354.28490417 -.00000037 00000+0 10083-2 0 9997 2 25851 51.9985 359.9478 0013611 283.5601 166.3229 11.04540267116829 GLOBALSTAR M032 1 25852U 99037B 25353.76725918 -.00000038 00000+0 92974-3 0 9998 2 25852 51.9913 173.4981 0013767 116.9378 243.2829 11.19075367155566 GLOBALSTAR M051 1 25853U 99037C 25354.28154141 -.00000108 00000+0 -89678-3 0 9997 2 25853 51.9819 311.9614 0000322 38.0494 322.0340 11.42202420153650 GLOBALSTAR M030 1 25854U 99037D 25353.35392169 -.00000087 00000+0 -24920-3 0 9994 2 25854 51.9888 108.5269 0003403 39.2370 320.8693 11.55111338171447 GLOBALSTAR M048 1 25872U 99041A 25354.02743116 -.00000036 00000+0 91397-3 0 9991 2 25872 51.9365 254.7944 0013316 141.8934 231.3456 11.33861106146065 GLOBALSTAR M026 1 25873U 99041B 25354.36040593 -.00000107 00000+0 -15757-2 0 9993 2 25873 52.0000 115.7722 0001797 182.2357 208.9600 11.06849040169106 GLOBALSTAR M043 1 25874U 99041C 25354.50038287 -.00000003 00000+0 19473-2 0 9990 2 25874 51.9429 8.7363 0013442 267.6960 262.4739 11.25698445143854 GLOBALSTAR M028 1 25875U 99041D 25354.29583576 -.00000082 00000+0 12207-3 0 9999 2 25875 51.9646 358.1161 0063491 115.5933 245.1507 12.50593049213463 GLOBALSTAR M024 1 25883U 99043A 25354.22822110 -.00000108 00000+0 -15449-2 0 9993 2 25883 52.0044 320.8479 0001832 35.9995 65.4936 11.10166013135529 GLOBALSTAR M027 1 25884U 99043B 25354.40845604 -.00000016 00000+0 17960-2 0 9994 2 25884 52.0236 43.6984 0020999 291.2860 68.5691 11.04372586161817 GLOBALSTAR M054 1 25885U 99043C 25354.39109087 -.00000090 00000+0 -47744-3 0 9998 2 25885 52.0111 139.7861 0005893 130.9017 242.0018 11.39224913140277 GLOBALSTAR M053 1 25886U 99043D 25354.49121318 -.00000079 00000+0 -31362-3 0 9997 2 25886 51.9982 96.9779 0003591 55.5114 27.5410 11.27668869140469 GLOBALSTAR M058 1 25907U 99049A 25354.11132031 -.00000101 00000+0 -21960-3 0 9999 2 25907 51.9971 332.7053 0001718 277.2021 82.8618 11.93206373563730 GLOBALSTAR M050 1 25908U 99049B 25354.21155132 -.00000060 00000+0 31856-3 0 9996 2 25908 52.0013 326.2151 0009461 42.2559 330.6387 12.07461662170669 GLOBALSTAR M033 1 25909U 99049C 25354.28411038 -.00000102 00000+0 -10001-3 0 9991 2 25909 51.9877 184.9950 0013128 289.4910 70.4518 12.20294808558467 GLOBALSTAR M055 1 25910U 99049D 25354.51555089 -.00000067 00000+0 22916-3 0 9991 2 25910 51.9984 186.0170 0007490 149.4913 210.6375 12.29438445191208 GLOBALSTAR M057 1 25943U 99058A 25354.50228897 -.00000079 00000+0 12490-3 0 9999 2 25943 51.9951 179.4387 0003318 52.6874 307.4278 12.24832256189768 GLOBALSTAR M059 1 25944U 99058B 25354.49759837 -.00000078 00000+0 10333-3 0 9994 2 25944 52.0035 63.1377 0000366 120.2488 252.5984 11.99988135596412 GLOBALSTAR M056 1 25945U 99058C 25353.95739685 -.00000096 00000+0 -93982-4 0 9997 2 25945 51.9979 61.7969 0001301 173.2027 357.5829 12.04780990185016 GLOBALSTAR M031 1 25946U 99058D 25351.65166691 -.00000043 00000+0 48267-3 0 9990 2 25946 51.9983 309.4344 0000939 181.2254 351.7896 12.16044933186865 GLOBALSTAR M039 1 25961U 99062A 25354.47511848 -.00000097 00000+0 36637-4 0 9991 2 25961 51.9860 61.3121 0002689 53.4685 306.6429 12.62339605203747 GLOBALSTAR M034 1 25962U 99062B 25353.95868737 -.00000043 00000+0 60731-3 0 9998 2 25962 51.9865 248.4880 0015139 34.3756 339.1369 11.79454133160314 GLOBALSTAR M029 1 25963U 99062C 25354.18669963 -.00000036 00000+0 62286-3 0 9994 2 25963 51.9826 311.8564 0002547 111.4356 262.6875 11.99904662191458 GLOBALSTAR M061 1 25964U 99062D 25354.40068556 -.00000097 00000+0 -27613-3 0 9994 2 25964 51.9805 73.8430 0005205 315.2559 123.6688 11.76777796143104 GLOBALSTAR M063 1 26081U 00008A 25354.41307346 -.00000108 00000+0 -37732-3 0 9997 2 26081 51.9986 341.1162 0004659 314.2923 214.1358 11.86178118179679 GLOBALSTAR M062 1 26082U 00008B 25354.14292733 -.00000123 00000+0 -17940-3 0 9997 2 26082 51.9855 268.9372 0007121 142.2033 357.6522 12.43478497519752 GLOBALSTAR M060 1 26083U 00008C 25353.91075897 -.00000013 00000+0 77471-3 0 9994 2 26083 52.0016 255.9055 0003478 125.9315 313.6553 12.17671573174990 GLOBALSTAR M064 1 26084U 00008D 25354.50764984 -.00000086 00000+0 -34313-4 0 9993 2 26084 52.0040 77.4980 0001828 80.2337 279.8702 11.88539260189253 GLOBALSTAR M065 1 31571U 07020A 25351.59775860 -.00000114 00000+0 -59491-4 0 9998 2 31571 51.9915 28.0181 0009699 356.5964 173.4742 12.62015524856566 GLOBALSTAR M069 1 31573U 07020C 25354.27856586 -.00000057 00000+0 33007-3 0 9992 2 31573 52.0048 38.5056 0002208 139.2656 296.3527 12.23465052856903 GLOBALSTAR M072 1 31574U 07020D 25354.07550841 -.00000045 00000+0 53108-3 0 9997 2 31574 51.9905 217.0909 0001328 19.9236 135.7869 11.91654598853625 GLOBALSTAR M071 1 31576U 07020F 25354.52705950 -.00000036 00000+0 54157-3 0 9997 2 31576 52.0073 68.6732 0001516 127.9021 246.2632 12.18262747517657 GLOBALSTAR M067 1 32263U 07048A 25354.05062421 -.00000065 00000+0 24154-3 0 9994 2 32263 51.9701 212.0752 0001980 48.5765 104.2171 12.40682961832551 GLOBALSTAR M070 1 32264U 07048B 25354.22857079 -.00000081 00000+0 12490-3 0 9993 2 32264 51.9759 281.7414 0000522 62.8950 86.3864 12.62327495837162 GLOBALSTAR M066 1 32265U 07048C 25353.85665747 -.00000086 00000+0 72845-4 0 9997 2 32265 51.9572 212.7193 0005649 36.1829 337.7100 12.30383484838159 GLOBALSTAR M068 1 32266U 07048D 25354.47142159 -.00000098 00000+0 34423-4 0 9997 2 32266 51.9886 94.3925 0001577 157.5658 283.5182 12.62835561841097 GLOBALSTAR M079 1 37188U 10054A 25354.09052307 -.00000086 00000+0 10108-3 0 9999 2 37188 52.0069 293.8690 0000713 31.2994 342.4928 12.62261594699933 GLOBALSTAR M074 1 37189U 10054B 25354.22444439 -.00000090 00000+0 79235-4 0 9998 2 37189 52.0029 292.7539 0000791 57.1922 85.0664 12.62264171700556 GLOBALSTAR M076 1 37190U 10054C 25354.25231446 -.00000089 00000+0 83066-4 0 9990 2 37190 52.0042 292.8580 0000882 47.1269 100.7929 12.62268240700273 GLOBALSTAR M077 1 37191U 10054D 25354.27784484 -.00000089 00000+0 -19921-3 0 9997 2 37191 51.9979 273.7438 0001261 35.6615 135.4772 11.68176465700239 GLOBALSTAR M075 1 37192U 10054E 25351.73634080 -.00000091 00000+0 72174-4 0 9994 2 37192 51.9972 342.6695 0000324 70.0279 101.0008 12.62270606699024 GLOBALSTAR M073 1 37193U 10054F 25354.01818461 -.00000062 00000+0 23178-3 0 9993 2 37193 52.0056 249.6872 0000980 53.0805 49.8097 12.62268138701306 GLOBALSTAR M083 1 37739U 11033A 25354.28351497 -.00000080 00000+0 13049-3 0 9993 2 37739 51.9834 197.3518 0000999 72.5959 98.5468 12.62265907670350 GLOBALSTAR M088 1 37740U 11033B 25354.47432655 -.00000123 00000+0 -10774-3 0 9993 2 37740 52.0213 102.7634 0000882 121.1651 316.8094 12.62270984665924 GLOBALSTAR M091 1 37741U 11033C 25354.47342747 -.00000103 00000+0 24361-5 0 9992 2 37741 52.0008 65.9973 0000530 138.1662 234.9242 12.62268168666717 GLOBALSTAR M085 1 37742U 11033D 25354.40124838 -.00000098 00000+0 30954-4 0 9992 2 37742 52.0145 17.3526 0000091 156.4435 309.1836 12.62267359667219 GLOBALSTAR M081 1 37743U 11033E 25351.59018587 -.00000087 00000+0 92331-4 0 9998 2 37743 51.9980 28.5496 0000222 94.7932 71.3857 12.62270971667009 GLOBALSTAR M089 1 37744U 11033F 25353.97595163 -.00000092 00000+0 64668-4 0 9991 2 37744 51.9953 335.4793 0000635 70.7300 322.4108 12.62262504668150 GLOBALSTAR M084 1 38040U 11080A 25354.01517571 -.00000080 00000+0 13519-3 0 9991 2 38040 51.9983 202.7474 0001356 80.4774 70.0123 12.62266756646139 GLOBALSTAR M080 1 38041U 11080B 25354.30798381 -.00000078 00000+0 14315-3 0 9996 2 38041 52.0033 203.5123 0000723 101.2365 70.3932 12.62265068646296 GLOBALSTAR M082 1 38042U 11080C 25354.44811177 -.00000116 00000+0 -67280-4 0 9995 2 38042 52.0051 158.5665 0000818 110.7588 267.6086 12.62266377647021 GLOBALSTAR M092 1 38043U 11080D 25354.45525515 -.00000071 00000+0 18020-3 0 9991 2 38043 52.0077 248.9335 0000887 67.9371 102.5403 12.62268529645475 GLOBALSTAR M090 1 38044U 11080E 25354.47859965 -.00000123 00000+0 -10849-3 0 9993 2 38044 52.0097 152.3723 0000912 93.9830 301.8858 12.62265518647144 GLOBALSTAR M086 1 38045U 11080F 25354.21563032 -.00000107 00000+0 -19802-4 0 9994 2 38045 51.9876 153.3941 0001471 49.8284 120.5848 12.62281372647056 GLOBALSTAR M097 1 39072U 13005A 25354.52308693 -.00000116 00000+0 -66844-4 0 9996 2 39072 52.0061 67.2041 0000459 110.7468 249.3448 12.62267647594344 GLOBALSTAR M093 1 39073U 13005B 25354.49698245 -.00000098 00000+0 29673-4 0 9995 2 39073 52.0117 60.5635 0000210 100.5516 259.5375 12.62271095594296 GLOBALSTAR M094 1 39074U 13005C 25354.25930810 -.00000108 00000+0 -26302-4 0 9996 2 39074 51.9980 335.5827 0000363 20.0927 339.9954 12.62265378595870 GLOBALSTAR M096 1 39075U 13005D 25354.27234624 -.00000096 00000+0 44025-4 0 9996 2 39075 52.0090 24.2010 0000073 123.6006 236.4867 12.62269452594798 GLOBALSTAR M078 1 39076U 13005E 25354.48388962 -.00000118 00000+0 -81536-4 0 9999 2 39076 51.9871 107.8157 0000814 181.4163 178.6701 12.62272478593440 GLOBALSTAR M095 1 39077U 13005F 25353.63913522 -.00000124 00000+0 -11278-3 0 9994 2 39077 52.0074 107.7367 0000495 136.6402 223.4503 12.62267235593199 GLOBALSTAR M087 1 52888U 22064A 25353.88974595 -.00000070 00000+0 19111-3 0 9991 2 52888 51.9990 248.3163 0000755 53.0105 307.0831 12.62261600168490